This is the latest recevied weather packets stored in our database for station/object N0TKN. If no packets are shown the sender has not sent any weather packets the latest 10 day(s).
| Time | Temp. | Humidity | Pressure | Rain* | Wind** | Luminosity | Snow |
|---|---|---|---|---|---|---|---|
| 1778126116 | 7.22° C | 84% | 1018 hPa | 0 mm | - | 0 W/m² | - |
| 1778125517 | 7.78° C | 81% | 1018.2 hPa | 0 mm | - | 0 W/m² | - |
| 1778124921 | 7.78° C | 76% | 1018.3 hPa | 0 mm | - | 0 W/m² | - |
| 1778124317 | 8.33° C | 71% | 1018.3 hPa | 0 mm | - | 0 W/m² | - |
| 1778123717 | 8.33° C | 70% | 1018.2 hPa | 0 mm | - | 0 W/m² | - |
| 1778123117 | 8.89° C | 67% | 1018.1 hPa | 0 mm | - | 0 W/m² | - |
| 1778122517 | 8.89° C | 65% | 1018.2 hPa | 0 mm | - | 0 W/m² | - |
| 1778121917 | 9.44° C | 63% | 1018.3 hPa | 0 mm | - | 0 W/m² | - |
| 1778121318 | 10° C | 62% | 1018.1 hPa | 0 mm | - | 0 W/m² | - |
| 1778120718 | 10.56° C | 60% | 1017.9 hPa | 0 mm | - | 0 W/m² | - |
| 1778120118 | 10.56° C | 56% | 1017.6 hPa | 0 mm | - | 0 W/m² | - |
| 1778119519 | 11.11° C | 56% | 1017.6 hPa | 0 mm | - | 0 W/m² | - |
| 1778118919 | 11.67° C | 50% | 1017.4 hPa | 0 mm | - | 0 W/m² | - |
| 1778118316 | 12.22° C | 49% | 1017.4 hPa | 0 mm | - | 0 W/m² | - |
| 1778117716 | 12.22° C | 47% | 1017.1 hPa | 0 mm | - | 0 W/m² | - |
| 1778117116 | 12.78° C | 47% | 1017 hPa | 0 mm | - | 0 W/m² | - |
| 1778116516 | 12.78° C | 46% | 1016.8 hPa | 0 mm | - | 2 W/m² | - |
| 1778115916 | 12.78° C | 45% | 1016.6 hPa | 0 mm | - | 5 W/m² | - |
| 1778115316 | 13.33° C | 45% | 1016.6 hPa | 0 mm | - | 11 W/m² | - |
| 1778114717 | 13.33° C | 44% | 1016.6 hPa | 0 mm | - | 19 W/m² | - |
| 1778114117 | 13.89° C | 42% | 1016.4 hPa | 0 mm | - | 25 W/m² | - |
| 1778113517 | 13.89° C | 40% | 1016.2 hPa | 0 mm | - | 30 W/m² | - |
| 1778112917 | 14.44° C | 42% | 1016.2 hPa | 0 mm | - | 36 W/m² | - |
| 1778112317 | 14.44° C | 39% | 1015.9 hPa | 0 mm | - | 91 W/m² | - |
| 1778111717 | 14.44° C | 39% | 1016.1 hPa | 0 mm | - | 56 W/m² | - |
* Rain latest hour (hover to see other rain measurements)
** Current wind speed in m/s (hover to see current wind gust speed)